STARLINK-32254 (60427 NORAD) Tracking and Keplerian Element Data

This shows tracking and keplerian element data for the satellite.

Feedback or suggestion? Click here.




ElementValue
Catalog60427
NameSTARLINK-32254
Epoch Orbit1082
Epoch Day286.81268845
Epoch Year2024
RAAN79.5126
Inclination53.1627
Eccentricity0.0001231
Argument of Perigee82.1114
Mean Anonmoly278.0026
Mean Motion15.30193257
Decay Rate1.36E-06
L11 60427U 24144C 24286.81268845 .00000136 00000+0 16708-4 0 9993
L22 60427 53.1627 79.5126 0001231 82.1114 278.0026 15.30193257 10821



Live tracking and technical data element details for STARLINK-32254 (NORAD 60427). STARLINK-32254 can be tracked NOW for your location showing map with azimuth and elevation plus other details from your city location.







IsCatalogInMostPopularTable: catalog: 60427, numindb: 8
Update: records affected: 1



GetName: 60427 STARLINK-32254

Hit Count: updated at: Wed, 04 Dec 2024 18:09:22 GMT